軌道要素
Epoch 2017 June 16.0 TT = JDT 2457920.5
T 2017 June 22.17172 TT MPCW
q 1.7879235 (2000.0) P Q
n 0.14526637 Peri. 90.26009 -0.76177097 -0.64200212
a 3.5839284 Node 49.80031 +0.53995046 -0.70323071
e 0.5011275 Incl. 6.52708 +0.35799230 -0.30545025
P 6.78
From 144 observations 1997 Jan. 15-2016 Dec. 18, mean residual 0".5.
|